Regional Weather Roundup
Issued by NWS

Home | Current Version | Previous Version | Text Only | Print | Product List | Glossary Off
Versions: 1 2 3 4 5 6 7 8 9 10 11 12 13 14 15 16 17 18 19 20 21 22 23 24 25 26 27 28 29 30 31 32 33 34 35 36 37 38 39 40 41 42 43 44 45 46 47 48 49 50

000
ASUS45 KBOU 270407
RWRCO

WEATHER ROUNDUP FOR COLORADO
NATIONAL WEATHER SERVICE DENVER/BOULDER CO
1000 PM MDT THU MAY 26 2016

NOTE: "FAIR" INDICATES FEW OR NO CLOUDS BELOW 12000 FEET WITH NO
SIGNIFICANT WEATHER AND/OR OBSTRUCTIONS TO VISIBILITY.

COZ001>005-013-030-031-270500-
...NORTHWEST COLORADO...

CITY           SKY/WX    TMP DP  RH WIND       PRES   REMARKS
CRAIG          CLOUDY    50  37  61 S10       29.94F
HAYDEN         FAIR      48  34  57 E6        29.95R
MEEKER         CLOUDY    50  36  58 CALM      29.97R
MOUNT WERNER   NOT AVBL
STEAMBOAT SPGS FAIR      46  35  67 NE9       29.98S
WALDEN         MOCLDY    37  32  81 NW7       30.00F
$$

COZ006>008-011-270500-
...WEST CENTRAL VALLEYS...

CITY           SKY/WX    TMP DP  RH WIND       PRES   REMARKS
GRAND JUNCTION FAIR      56  36  47 N8        29.91S
MONTROSE       CLOUDY    52  37  56 W12       29.99R
EAGLE          CLOUDY    43  41  93 SW12      30.03F
RIFLE          CLOUDY    55  36  48 E7        29.94R
DELTA          MOCLDY    59  37  44 SW17G28   29.92S
NUCLA          CLOUDY    54  34  47 E8        30.01R
$$

COZ017>023-064>068-270500-
...SOUTHWEST COLORADO...

CITY           SKY/WX    TMP DP  RH WIND       PRES   REMARKS
DURANGO        FAIR      50  26  39 W10       29.94S
CORTEZ         MOCLDY    48  35  60 SE7       29.97R
PAGOSA SPRINGS FAIR      45  29  53 CALM      29.97S
TELLURIDE      MOCLDY    38  35  90 CALM      30.08R
WOLF CREEK PAS CLOUDY    28  21  74 W5        30.13S WCI  23
$$

COZ009-010-012-014-032>034-037-058>063-270500-
...CENTRAL COLORADO...

CITY           SKY/WX    TMP DP  RH WIND       PRES   REMARKS
ASPEN          RAIN      40  35  83 NW9       30.04R
BUENA VISTA    CLOUDY    41  36  82 CALM      30.01F
COPPER MTN     NOT AVBL
BERTHOUD PASS  HAZE      25  14  63 N7        30.12R VSB<1/4 WCI  17
COTTONWOOD PAS LGT SNOW  36  34  93 SE3       30.06R
GUNNISON       CLOUDY    45  34  65 CALM      30.02R
KREMMLING      MOCLDY    45  32  61 W7        29.99S
LEADVILLE      MOCLDY    32  30  92 N3        30.04F
MONARCH PASS   FOG       28  28 100 N5        30.21R VSB<1/4 WCI  23
SALIDA         CLOUDY    43  39  88 W5        30.09R
SUNLIGHT       CLOUDY    34  32  93 CALM      30.15S
WILKERSON PASS CLOUDY    30  28  93 NE8       30.11S WCI  23
$$

COZ069>075-270500-
...SAN LUIS VALLEY/SANGRE DE CRISTO MOUNTAINS...

CITY           SKY/WX    TMP DP  RH WIND       PRES   REMARKS
ALAMOSA        CLOUDY    46  31  55 E3        29.97R
LA VETA PASS   CLOUDY    32  30  93 MISG      30.02F
SAGUACHE       RAIN      41  36  81 NW17      30.00R
$$

COZ035-036-038>040-270500-
...NORTHERN COLORADO FRONT RANGE...

CITY           SKY/WX    TMP DP  RH WIND       PRES   REMARKS
DENVER INTL AP CLOUDY    45  43  93 SE9       29.92S
DMNS CITY PARK   N/A     47  45  93 E9        29.92S
AURORA         LGT RAIN  45  45 100 SE6       29.93F
FRONT RANGE AP NOT AVBL
ERIE MUNI ARPT FAIR      49  45  85 SE3       29.92S
BOULDER MUN AP FAIR      48  45  87 CALM      29.92R
CENTENNIAL     CLOUDY    45  42  89 CALM      29.93F
BROOMFIELD     CLOUDY    48  45  87 CALM      29.93S
FORT COLLINS   FAIR      48  43  81 S5        29.92S
LONGMONT       FAIR      51  46  83 CALM      29.94R
$$

COZ041-046-047-076>085-087-088-270500-
...PIKES PEAK/PALMER DIVIDE AND SOUTHERN FOOTHILLS...

CITY           SKY/WX    TMP DP  RH WIND       PRES   REMARKS
COLO. SPRINGS  CLOUDY    45  42  89 N13       29.93F
A. F. ACADEMY  MIX PCPN  41  41 100 N5        29.93S
SCHRIEVER AFB  NOT AVBL
ELLICOTT       CLOUDY   N/A N/A N/A N20       29.89S
FALCON         DRIZZLE   39  37  92 N9G16     29.96R
FORT CARSON    PTCLDY    46  42  84 N13       29.89F
LIMON          FAIR      41  40  96 NW20G29   29.85R
MONUMENT HILL  RAIN      37  37 100 CALM      29.98R
TRINIDAD       FAIR      49  37  63 N9        29.89R
$$

COZ042>045-048>051-090-091-270500-
...NORTHEAST COLORADO...

CITY           SKY/WX    TMP DP  RH WIND       PRES   REMARKS
GREELEY ARPT   FAIR      48  46  93 SW6       29.91S
AKRON          LGT RAIN  47  45  93 W13       29.88F
BURLINGTON     FAIR      48  41  76 NW21      29.75R
WRAY           LGT RAIN  52  52 100 N28G33    29.72F
STERLING       RAIN      52  50  93 SE7       29.88R
HOLYOKE        NOT AVBL
FORT MORGAN    RAIN      48  46  92 W10       29.91F
$$

COZ086-089-092>099-270500-
...SOUTHEAST COLORADO...

CITY           SKY/WX    TMP DP  RH WIND       PRES   REMARKS
PUEBLO         FAIR      52  39  61 NW9       29.87R
LA JUNTA       FAIR      51  41  68 NW18      29.84R
LAMAR          FAIR      52  41  66 NW9       29.79R
SPRINGFIELD      N/A     51  42  71 N16G23    29.79R
$$



USA.gov is the U.S. government's official web portal to all federal, state and local government web resources and services.